Time,TemperatureF,DewpointF,PressureIn,WindDirection,WindDirectionDegrees,WindSpeedMPH,WindSpeedGustMPH,Humidity,HourlyPrecipIn,Conditions,Clouds,dailyrainin,SoftwareType,DateUTC
2013-03-01 00:07:00,28.8,24.0,30.01,WSW,257,0.0,9.0,81,0.00,,,0.00,weatherlink.com 1.10,2013-03-01 05:07:00,
2013-03-01 00:23:00,28.8,24.0,30.00,WNW,290,2.0,3.0,82,0.00,,,0.00,weatherlink.com 1.10,2013-03-01 05:23:00,
2013-03-01 00:38:00,28.8,23.0,30.01,West,280,4.0,11.0,80,0.00,,,0.00,weatherlink.com 1.10,2013-03-01 05:38:00,
2013-03-01 00:53:00,28.8,24.0,30.01,WNW,303,1.0,7.0,81,0.00,,,0.00,weatherlink.com 1.10,2013-03-01 05:53:00,
2013-03-01 01:08:00,28.9,23.0,30.01,WNW,298,2.0,10.0,80,0.00,,,0.00,weatherlink.com 1.10,2013-03-01 06:08:00,
2013-03-01 01:23:00,28.8,24.0,30.01,NW,316,8.0,10.0,81,0.00,,,0.00,weatherlink.com 1.10,2013-03-01 06:23:00,
2013-03-01 01:38:00,28.7,24.0,30.01,NW,311,4.0,14.0,81,0.00,,,0.00,weatherlink.com 1.10,2013-03-01 06:38:00,
2013-03-01 01:53:00,28.7,24.0,30.01,WNW,283,0.0,7.0,82,0.00,,,0.00,weatherlink.com 1.10,2013-03-01 06:53:00,
2013-03-01 02:08:00,28.5,24.0,30.01,NW,311,2.0,7.0,83,0.00,,,0.00,weatherlink.com 1.10,2013-03-01 07:08:00,
2013-03-01 02:23:00,28.3,24.0,30.01,West,273,0.0,11.0,84,0.00,,,0.00,weatherlink.com 1.10,2013-03-01 07:23:00,
2013-03-01 02:38:00,28.2,25.0,30.00,West,274,0.0,3.0,86,0.00,,,0.00,weatherlink.com 1.10,2013-03-01 07:38:00,
2013-03-01 02:53:00,28.1,24.0,30.00,West,272,0.0,4.0,83,0.00,,,0.00,weatherlink.com 1.10,2013-03-01 07:53:00,
2013-03-01 03:08:00,28.1,24.0,29.99,WNW,294,6.0,11.0,83,0.00,,,0.00,weatherlink.com 1.10,2013-03-01 08:08:00,
2013-03-01 03:23:00,28.0,24.0,29.99,WNW,293,3.0,5.0,84,0.00,,,0.00,weatherlink.com 1.10,2013-03-01 08:23:00,
2013-03-01 03:38:00,27.8,24.0,29.99,NNW,335,1.0,8.0,84,0.00,,,0.00,weatherlink.com 1.10,2013-03-01 08:38:00,
2013-03-01 03:53:00,27.8,24.0,29.99,NNW,328,0.0,4.0,84,0.00,,,0.00,weatherlink.com 1.10,2013-03-01 08:53:00,
2013-03-01 04:08:00,27.7,23.0,29.99,SW,224,0.0,12.0,83,0.00,,,0.00,weatherlink.com 1.10,2013-03-01 09:08:00,
2013-03-01 04:23:00,27.7,24.0,30.00,WSW,248,1.0,4.0,85,0.00,,,0.00,weatherlink.com 1.10,2013-03-01 09:23:00,
2013-03-01 04:38:00,27.9,23.0,30.00,WNW,288,3.0,8.0,83,0.00,,,0.00,weatherlink.com 1.10,2013-03-01 09:38:00,
2013-03-01 04:53:00,27.8,24.0,30.01,West,278,0.0,5.0,85,0.00,,,0.00,weatherlink.com 1.10,2013-03-01 09:53:00,
2013-03-01 05:08:00,27.7,24.0,30.02,WNW,295,1.0,6.0,86,0.00,,,0.00,weatherlink.com 1.10,2013-03-01 10:08:00,
2013-03-01 05:23:00,27.7,24.0,30.02,West,279,0.0,7.0,86,0.00,,,0.00,weatherlink.com 1.10,2013-03-01 10:23:00,
2013-03-01 05:38:00,27.3,24.0,30.02,NW,311,5.0,5.0,86,0.00,,,0.00,weatherlink.com 1.10,2013-03-01 10:38:00,
2013-03-01 05:53:00,27.4,24.0,30.02,WNW,302,1.0,6.0,85,0.00,,,0.00,weatherlink.com 1.10,2013-03-01 10:53:00,
2013-03-01 06:08:00,27.8,24.0,30.03,WNW,302,3.0,9.0,85,0.00,,,0.00,weatherlink.com 1.10,2013-03-01 11:08:00,
2013-03-01 06:23:00,27.8,24.0,30.02,West,266,1.0,5.0,85,0.00,,,0.00,weatherlink.com 1.10,2013-03-01 11:23:00,
2013-03-01 06:38:00,28.0,24.0,30.02,North,349,4.0,4.0,84,0.00,,,0.00,weatherlink.com 1.10,2013-03-01 11:38:00,
2013-03-01 06:53:00,28.3,24.0,30.03,WNW,298,0.0,6.0,85,0.00,,,0.00,weatherlink.com 1.10,2013-03-01 11:53:00,
2013-03-01 07:08:00,28.5,24.0,30.03,NW,313,2.0,4.0,83,0.00,,,0.00,weatherlink.com 1.10,2013-03-01 12:08:00,
2013-03-01 07:23:00,28.7,24.0,30.03,NW,311,1.0,5.0,82,0.00,,,0.00,weatherlink.com 1.10,2013-03-01 12:23:00,
2013-03-01 07:38:00,29.0,24.0,30.03,NW,313,1.0,6.0,82,0.00,,,0.00,weatherlink.com 1.10,2013-03-01 12:38:00,
2013-03-01 07:53:00,29.3,24.0,30.04,NW,316,0.0,4.0,81,0.00,,,0.00,weatherlink.com 1.10,2013-03-01 12:53:00,
2013-03-01 08:08:00,29.8,24.0,30.04,WNW,298,0.0,7.0,79,0.00,,,0.00,weatherlink.com 1.10,2013-03-01 13:08:00,
2013-03-01 08:23:00,30.1,24.0,30.05,West,271,0.0,7.0,78,0.00,,,0.00,weatherlink.com 1.10,2013-03-01 13:23:00,
2013-03-01 08:38:00,30.5,24.0,30.05,West,280,0.0,10.0,77,0.00,,,0.00,weatherlink.com 1.10,2013-03-01 13:38:00,
2013-03-01 08:53:00,30.7,24.0,30.05,NNW,330,5.0,8.0,75,0.00,,,0.00,weatherlink.com 1.10,2013-03-01 13:53:00,
2013-03-01 09:08:00,31.3,25.0,30.05,WSW,255,0.0,8.0,77,0.00,,,0.00,weatherlink.com 1.10,2013-03-01 14:08:00,
2013-03-01 09:23:00,31.7,24.0,30.05,NW,318,6.0,9.0,74,0.00,,,0.00,weatherlink.com 1.10,2013-03-01 14:23:00,
2013-03-01 09:39:00,31.8,24.0,30.05,NW,308,6.0,10.0,74,0.00,,,0.00,weatherlink.com 1.10,2013-03-01 14:39:00,
2013-03-01 09:54:00,33.1,25.0,30.05,NW,325,4.0,6.0,72,0.00,,,0.00,weatherlink.com 1.10,2013-03-01 14:54:00,
2013-03-01 10:09:00,33.1,25.0,30.05,West,261,4.0,8.0,73,0.00,,,0.00,weatherlink.com 1.10,2013-03-01 15:09:00,
2013-03-01 10:24:00,33.4,25.0,30.05,WSW,256,4.0,9.0,72,0.00,,,0.00,weatherlink.com 1.10,2013-03-01 15:24:00,
2013-03-01 10:39:00,34.0,26.0,30.05,WNW,297,5.0,6.0,72,0.00,,,0.00,weatherlink.com 1.10,2013-03-01 15:39:00,
2013-03-01 10:54:00,34.0,26.0,30.05,NW,313,6.0,7.0,71,0.00,,,0.00,weatherlink.com 1.10,2013-03-01 15:54:00,
2013-03-01 11:09:00,34.2,26.0,30.06,WSW,245,0.0,7.0,72,0.00,,,0.00,weatherlink.com 1.10,2013-03-01 16:09:00,
2013-03-01 11:24:00,35.3,26.0,30.06,SSW,200,1.0,4.0,69,0.00,,,0.00,weatherlink.com 1.10,2013-03-01 16:24:00,
2013-03-01 11:39:00,35.9,26.0,30.05,WNW,287,1.0,5.0,67,0.00,,,0.00,weatherlink.com 1.10,2013-03-01 16:39:00,
2013-03-01 11:54:00,35.9,25.0,30.05,NW,312,2.0,9.0,66,0.00,,,0.00,weatherlink.com 1.10,2013-03-01 16:54:00,
2013-03-01 12:09:00,35.4,25.0,30.05,NNW,341,3.0,9.0,67,0.00,,,0.00,weatherlink.com 1.10,2013-03-01 17:09:00,
2013-03-01 12:24:00,36.3,26.0,30.05,North,1,0.0,6.0,67,0.00,,,0.00,weatherlink.com 1.10,2013-03-01 17:24:00,
2013-03-01 12:39:00,36.6,27.0,30.05,North,10,2.0,8.0,68,0.00,,,0.00,weatherlink.com 1.10,2013-03-01 17:39:00,
2013-03-01 12:54:00,36.5,27.0,30.04,NW,316,1.0,7.0,68,0.00,,,0.00,weatherlink.com 1.10,2013-03-01 17:54:00,
2013-03-01 13:09:00,37.3,27.0,30.03,NNW,331,5.0,6.0,66,0.00,,,0.00,weatherlink.com 1.10,2013-03-01 18:09:00,
2013-03-01 13:24:00,37.8,28.0,30.02,NNW,347,2.0,8.0,67,0.00,,,0.00,weatherlink.com 1.10,2013-03-01 18:24:00,
2013-03-01 13:39:00,38.3,27.0,30.02,NW,311,3.0,9.0,64,0.00,,,0.00,weatherlink.com 1.10,2013-03-01 18:39:00,
2013-03-01 13:54:00,38.5,28.0,30.01,WSW,245,4.0,7.0,66,0.00,,,0.00,weatherlink.com 1.10,2013-03-01 18:54:00,
2013-03-01 14:09:00,38.3,26.0,30.01,West,272,2.0,9.0,62,0.00,,,0.00,weatherlink.com 1.10,2013-03-01 19:09:00,
2013-03-01 14:24:00,38.1,26.0,30.01,WNW,300,1.0,8.0,62,0.00,,,0.00,weatherlink.com 1.10,2013-03-01 19:24:00,
2013-03-01 14:39:00,37.6,26.0,30.00,NW,321,3.0,9.0,64,0.00,,,0.00,weatherlink.com 1.10,2013-03-01 19:39:00,
2013-03-01 14:54:00,37.6,27.0,30.00,WNW,293,7.0,10.0,66,0.00,,,0.00,weatherlink.com 1.10,2013-03-01 19:54:00,
2013-03-01 15:09:00,37.5,27.0,30.00,NW,304,0.0,8.0,66,0.00,,,0.00,weatherlink.com 1.10,2013-03-01 20:09:00,
2013-03-01 15:24:00,38.0,27.0,30.00,NW,326,3.0,9.0,64,0.00,,,0.00,weatherlink.com 1.10,2013-03-01 20:24:00,
2013-03-01 15:39:00,37.6,26.0,30.00,NNE,18,0.0,9.0,64,0.00,,,0.00,weatherlink.com 1.10,2013-03-01 20:39:00,
2013-03-01 15:54:00,37.5,27.0,30.00,North,1,4.0,8.0,65,0.00,,,0.00,weatherlink.com 1.10,2013-03-01 20:54:00,
2013-03-01 16:09:00,37.3,26.0,30.00,NW,313,3.0,12.0,65,0.00,,,0.00,weatherlink.com 1.10,2013-03-01 21:09:00,
2013-03-01 16:24:00,37.5,27.0,30.00,WNW,302,3.0,12.0,66,0.00,,,0.00,weatherlink.com 1.10,2013-03-01 21:24:00,
2013-03-01 16:39:00,38.7,27.0,29.99,NNW,335,2.0,10.0,62,0.00,,,0.00,weatherlink.com 1.10,2013-03-01 21:39:00,
2013-03-01 16:54:00,37.7,27.0,30.00,West,275,0.0,10.0,65,0.00,,,0.00,weatherlink.com 1.10,2013-03-01 21:54:00,
2013-03-01 17:09:00,36.9,27.0,30.00,WNW,297,1.0,9.0,68,0.00,,,0.00,weatherlink.com 1.10,2013-03-01 22:09:00,
2013-03-01 17:24:00,35.3,27.0,30.01,NW,309,10.0,14.0,71,0.00,,,0.00,weatherlink.com 1.10,2013-03-01 22:24:00,
2013-03-01 17:39:00,34.8,27.0,30.00,NNE,14,2.0,10.0,72,0.00,,,0.00,weatherlink.com 1.10,2013-03-01 22:39:00,
2013-03-01 17:54:00,34.2,27.0,30.01,NW,313,2.0,11.0,74,0.00,,,0.00,weatherlink.com 1.10,2013-03-01 22:54:00,
2013-03-01 18:09:00,33.8,27.0,30.01,NW,318,4.0,7.0,75,0.00,,,0.00,weatherlink.com 1.10,2013-03-01 23:09:00,
2013-03-01 18:24:00,33.4,26.0,30.02,WNW,300,0.0,10.0,75,0.00,,,0.00,weatherlink.com 1.10,2013-03-01 23:24:00,
2013-03-01 18:39:00,33.1,27.0,30.02,West,259,0.0,8.0,77,0.00,,,0.00,weatherlink.com 1.10,2013-03-01 23:39:00,
2013-03-01 18:54:00,32.8,26.0,30.02,WNW,294,1.0,9.0,77,0.00,,,0.00,weatherlink.com 1.10,2013-03-01 23:54:00,
2013-03-01 19:09:00,32.7,27.0,30.03,West,267,0.0,5.0,78,0.00,,,0.00,weatherlink.com 1.10,2013-03-02 00:09:00,
2013-03-01 19:24:00,32.4,26.0,30.03,West,263,1.0,10.0,78,0.00,,,0.00,weatherlink.com 1.10,2013-03-02 00:24:00,
2013-03-01 19:40:00,32.3,26.0,30.03,NW,309,2.0,10.0,78,0.00,,,0.00,weatherlink.com 1.10,2013-03-02 00:40:00,
2013-03-01 19:55:00,32.3,26.0,30.03,WNW,302,0.0,6.0,78,0.00,,,0.00,weatherlink.com 1.10,2013-03-02 00:55:00,
2013-03-01 20:10:00,32.2,26.0,30.03,NW,326,2.0,3.0,77,0.00,,,0.00,weatherlink.com 1.10,2013-03-02 01:10:00,
2013-03-01 20:25:00,32.1,26.0,30.03,West,260,1.0,10.0,77,0.00,,,0.00,weatherlink.com 1.10,2013-03-02 01:25:00,
2013-03-01 20:40:00,32.0,26.0,30.03,WNW,283,1.0,4.0,77,0.00,,,0.00,weatherlink.com 1.10,2013-03-02 01:40:00,
2013-03-01 20:55:00,31.9,26.0,30.02,WNW,302,2.0,8.0,78,0.00,,,0.00,weatherlink.com 1.10,2013-03-02 01:55:00,
2013-03-01 21:10:00,31.9,26.0,30.03,NE,43,1.0,6.0,79,0.00,,,0.00,weatherlink.com 1.10,2013-03-02 02:10:00,
2013-03-01 21:25:00,31.7,26.0,30.03,NW,326,1.0,9.0,78,0.00,,,0.00,weatherlink.com 1.10,2013-03-02 02:25:00,
2013-03-01 21:40:00,31.7,26.0,30.04,SSW,212,0.0,2.0,79,0.00,,,0.00,weatherlink.com 1.10,2013-03-02 02:40:00,
2013-03-01 21:55:00,31.6,26.0,30.04,WNW,302,1.0,6.0,79,0.00,,,0.00,weatherlink.com 1.10,2013-03-02 02:55:00,
2013-03-01 22:10:00,31.6,26.0,30.04,WNW,289,1.0,2.0,79,0.00,,,0.00,weatherlink.com 1.10,2013-03-02 03:10:00,
2013-03-01 22:25:00,31.4,26.0,30.03,NW,315,0.0,3.0,80,0.00,,,0.00,weatherlink.com 1.10,2013-03-02 03:25:00,
2013-03-01 22:40:00,31.3,26.0,30.03,North,357,0.0,5.0,81,0.00,,,0.00,weatherlink.com 1.10,2013-03-02 03:40:00,
2013-03-01 22:55:00,31.2,26.0,30.02,West,274,0.0,3.0,81,0.00,,,0.00,weatherlink.com 1.10,2013-03-02 03:55:00,
2013-03-01 23:10:00,31.1,26.0,30.02,West,281,0.0,5.0,82,0.00,,,0.00,weatherlink.com 1.10,2013-03-02 04:10:00,
2013-03-01 23:25:00,31.0,26.0,30.02,NW,305,3.0,4.0,81,0.00,,,0.00,weatherlink.com 1.10,2013-03-02 04:25:00,
2013-03-01 23:40:00,31.0,26.0,30.01,NW,312,3.0,7.0,81,0.00,,,0.00,weatherlink.com 1.10,2013-03-02 04:40:00,
2013-03-01 23:55:00,30.9,26.0,30.01,West,262,0.0,4.0,81,0.00,,,0.00,weatherlink.com 1.10,2013-03-02 04:55:00,